When you browse on this site, cookies collect data to enhance your experience and personalize the content and advertising you see.
Visit our Privacy Policy to learn more. By continuing to use the site, you agree to this use of cookies and data.
  • In Slovakia
  • List of Countries
  • For 7 days
  • Water Temperature
  • Weather Map
  • Weather Widgets
  • user-avatar
    Login

    Hourly Weather Santa Fe

    Today, 15 September, Sunday

    Time Temperature Precipitation Wind Pressure Humidity
    00:00 +14°C° 0 mm 3 mps 755 mmHg 91%
    01:00 +14°C° 0 mm 3 mps 754 mmHg 92%
    02:00 +13°C° 0 mm 3 mps 753 mmHg 94%
    03:00 +13°C° 0 mm 3 mps 753 mmHg 93%
    04:00 +13°C° 0 mm 3 mps 753 mmHg 93%
    05:00 +13°C° 0 mm 3 mps 753 mmHg 93%
    06:00 +16°C° 0 mm 3 mps 753 mmHg 88%
    07:00 +17°C° 0 mm 3 mps 753 mmHg 82%
    08:00 +18°C° 0 mm 3 mps 753 mmHg 77%
    09:00 +21°C° 0 mm 4 mps 753 mmHg 72%
    10:00 +23°C° 0 mm 4 mps 752 mmHg 66%
    11:00 +26°C° 0 mm 4 mps 752 mmHg 61%
    12:00 +27°C° 0.1 mm 4 mps 751 mmHg 61%
    13:00 +28°C° 0.1 mm 3 mps 751 mmHg 61%
    14:00 +29°C° 0.1 mm 3 mps 750 mmHg 61%
    15:00 +28°C° 0.1 mm 2 mps 750 mmHg 64%
    16:00 +28°C° 0.1 mm 1 mps 750 mmHg 67%
    17:00 +28°C° 0.1 mm 1 mps 750 mmHg 71%
    18:00 +26°C° 0 mm 2 mps 751 mmHg 77%
    19:00 +25°C° 0 mm 3 mps 751 mmHg 83%
    20:00 +22°C° 0 mm 5 mps 752 mmHg 89%
    21:00 +22°C° 0 mm 5 mps 753 mmHg 90%
    22:00 +21°C° 0 mm 5 mps 754 mmHg 91%
    23:00 +20°C° 0 mm 6 mps 754 mmHg 92%

    Tomorrow, 16 September, Monday

    Time Temperature Precipitation Wind Pressure Humidity
    00:00 +20°C° 0 mm 6 mps 755 mmHg 90%
    01:00 +19°C° 0 mm 6 mps 755 mmHg 89%
    02:00 +17°C° 0 mm 7 mps 756 mmHg 87%
    03:00 +16°C° 0 mm 7 mps 757 mmHg 85%
    04:00 +15°C° 0 mm 8 mps 758 mmHg 82%
    05:00 +13°C° 0 mm 9 mps 759 mmHg 80%
    06:00 +15°C° 0 mm 8 mps 760 mmHg 74%
    07:00 +15°C° 0 mm 7 mps 762 mmHg 68%
    08:00 +15°C° 0 mm 7 mps 763 mmHg 62%
    09:00 +16°C° 0 mm 6 mps 764 mmHg 60%
    10:00 +16°C° 0 mm 6 mps 764 mmHg 58%
    11:00 +16°C° 0 mm 5 mps 765 mmHg 56%
    12:00 +17°C° 0 mm 5 mps 765 mmHg 50%
    13:00 +20°C° 0 mm 5 mps 764 mmHg 44%
    14:00 +21°C° 0 mm 5 mps 764 mmHg 38%
    15:00 +20°C° 0 mm 5 mps 764 mmHg 42%
    16:00 +19°C° 0 mm 4 mps 764 mmHg 46%
    17:00 +18°C° 0 mm 3 mps 764 mmHg 51%
    18:00 +17°C° 0 mm 3 mps 765 mmHg 51%
    19:00 +14°C° 0 mm 3 mps 765 mmHg 52%
    20:00 +13°C° 0 mm 3 mps 765 mmHg 52%
    21:00 +13°C° 0 mm 2 mps 765 mmHg 53%
    22:00 +12°C° 0 mm 2 mps 765 mmHg 53%
    23:00 +12°C° 0 mm 2 mps 765 mmHg 54%

    Day after tomorrow, 17 September, Tuesday

    Time Temperature Precipitation Wind Pressure Humidity
    00:00 +11°C° 0 mm 1 mps 764 mmHg 55%
    01:00 +11°C° 0 mm 1 mps 764 mmHg 56%
    02:00 +10°C° 0 mm 1 mps 763 mmHg 57%
    03:00 +10°C° 0 mm 1 mps 763 mmHg 58%
    04:00 +10°C° 0 mm 1 mps 762 mmHg 60%
    05:00 +9°C° 0 mm 1 mps 762 mmHg 62%
    06:00 +11°C° 0 mm 1 mps 762 mmHg 60%
    07:00 +12°C° 0 mm 1 mps 762 mmHg 59%
    08:00 +13°C° 0 mm 1 mps 762 mmHg 57%
    09:00 +15°C° 0 mm 2 mps 761 mmHg 52%
    10:00 +17°C° 0 mm 2 mps 761 mmHg 47%
    11:00 +19°C° 0 mm 2 mps 760 mmHg 42%
    12:00 +20°C° 0 mm 2 mps 759 mmHg 41%
    13:00 +21°C° 0 mm 2 mps 758 mmHg 40%
    14:00 +21°C° 0 mm 2 mps 758 mmHg 39%
    15:00 +21°C° 0 mm 2 mps 757 mmHg 44%
    16:00 +20°C° 0 mm 2 mps 757 mmHg 50%
    17:00 +21°C° 0 mm 1 mps 756 mmHg 55%
    18:00 +18°C° 0 mm 2 mps 756 mmHg 57%
    19:00 +16°C° 0 mm 2 mps 756 mmHg 58%
    20:00 +15°C° 0 mm 2 mps 757 mmHg 60%
    21:00 +14°C° 0 mm 2 mps 757 mmHg 62%
    22:00 +14°C° 0 mm 2 mps 757 mmHg 64%
    23:00 +13°C° 0 mm 2 mps 757 mmHg 67%

    18 September, Wednesday

    Time Temperature Precipitation Wind Pressure Humidity
    00:00 +13°C° 0 mm 2 mps 757 mmHg 67%
    01:00 +12°C° 0 mm 2 mps 757 mmHg 68%
    02:00 +12°C° 0 mm 2 mps 758 mmHg 69%
    03:00 +10°C° 0 mm 2 mps 758 mmHg 70%
    04:00 +11°C° 0 mm 1 mps 758 mmHg 71%
    05:00 +11°C° 0 mm 1 mps 758 mmHg 73%
    06:00 +12°C° 0 mm 1 mps 758 mmHg 69%
    07:00 +14°C° 0 mm 1 mps 758 mmHg 65%
    08:00 +14°C° 0 mm 0 mps 758 mmHg 61%
    09:00 +18°C° 0 mm 1 mps 758 mmHg 57%
    10:00 +20°C° 0 mm 1 mps 758 mmHg 52%
    11:00 +22°C° 0 mm 1 mps 758 mmHg 48%
    12:00 +23°C° 0 mm 2 mps 757 mmHg 45%
    13:00 +24°C° 0 mm 2 mps 756 mmHg 43%
    14:00 +25°C° 0 mm 3 mps 755 mmHg 40%
    15:00 +24°C° 0 mm 3 mps 755 mmHg 46%
    16:00 +22°C° 0 mm 3 mps 754 mmHg 51%
    17:00 +21°C° 0 mm 3 mps 753 mmHg 57%
    18:00 +20°C° 0 mm 3 mps 753 mmHg 60%
    19:00 +18°C° 0 mm 3 mps 753 mmHg 64%
    20:00 +16°C° 0 mm 3 mps 753 mmHg 67%
    21:00 +15°C° 0 mm 4 mps 753 mmHg 69%
    22:00 +14°C° 0 mm 4 mps 753 mmHg 72%
    23:00 +14°C° 0 mm 4 mps 752 mmHg 74%

    19 September, Thursday

    Time Temperature Precipitation Wind Pressure Humidity
    00:00 +13°C° 0 mm 4 mps 752 mmHg 74%
    01:00 +13°C° 0 mm 4 mps 752 mmHg 75%
    02:00 +13°C° 0 mm 4 mps 751 mmHg 76%
    03:00 +12°C° 0 mm 4 mps 751 mmHg 79%
    04:00 +11°C° 0 mm 3 mps 751 mmHg 81%
    05:00 +11°C° 0 mm 3 mps 751 mmHg 84%
    06:00 +12°C° 0 mm 3 mps 751 mmHg 80%
    07:00 +14°C° 0 mm 2 mps 752 mmHg 75%
    08:00 +16°C° 0 mm 2 mps 752 mmHg 70%
    09:00 +18°C° 0 mm 2 mps 753 mmHg 64%
    10:00 +20°C° 0 mm 3 mps 753 mmHg 58%
    11:00 +21°C° 0 mm 3 mps 754 mmHg 51%
    12:00 +22°C° 0 mm 4 mps 754 mmHg 51%
    13:00 +22°C° 0 mm 4 mps 754 mmHg 51%
    14:00 +23°C° 0 mm 5 mps 754 mmHg 50%
    15:00 +21°C° 0 mm 5 mps 755 mmHg 51%
    16:00 +20°C° 0 mm 5 mps 755 mmHg 52%
    17:00 +19°C° 0 mm 6 mps 756 mmHg 53%
    18:00 +17°C° 0 mm 6 mps 757 mmHg 52%
    19:00 +16°C° 0 mm 6 mps 758 mmHg 52%
    20:00 +15°C° 0 mm 5 mps 759 mmHg 51%
    21:00 +13°C° 0 mm 5 mps 760 mmHg 53%
    22:00 +12°C° 0 mm 5 mps 761 mmHg 55%
    23:00 +11°C° 0 mm 4 mps 761 mmHg 57%

    20 September, Friday

    Time Temperature Precipitation Wind Pressure Humidity
    00:00 +10°C° 0 mm 4 mps 762 mmHg 55%
    01:00 +10°C° 0 mm 4 mps 762 mmHg 53%
    02:00 +9°C° 0 mm 3 mps 762 mmHg 51%
    03:00 +8°C° 0 mm 3 mps 763 mmHg 53%
    04:00 +7°C° 0 mm 3 mps 763 mmHg 55%
    05:00 +7°C° 0 mm 3 mps 763 mmHg 57%
    06:00 +8°C° 0 mm 3 mps 763 mmHg 59%
    07:00 +9°C° 0 mm 3 mps 764 mmHg 60%
    08:00 +11°C° 0 mm 3 mps 764 mmHg 61%
    09:00 +12°C° 0 mm 3 mps 764 mmHg 55%
    10:00 +14°C° 0 mm 3 mps 764 mmHg 49%
    11:00 +17°C° 0 mm 3 mps 764 mmHg 42%
    12:00 +18°C° 0 mm 3 mps 763 mmHg 41%
    13:00 +18°C° 0 mm 2 mps 762 mmHg 39%
    14:00 +19°C° 0 mm 2 mps 762 mmHg 38%
    15:00 +18°C° 0 mm 2 mps 761 mmHg 43%
    16:00 +18°C° 0 mm 2 mps 761 mmHg 48%
    17:00 +17°C° 0 mm 2 mps 760 mmHg 53%
    18:00 +16°C° 0 mm 2 mps 761 mmHg 57%
    19:00 +14°C° 0 mm 2 mps 761 mmHg 62%
    20:00 +12°C° 0 mm 2 mps 762 mmHg 66%
    21:00 +10°C° 0 mm 2 mps 762 mmHg 68%
    22:00 +10°C° 0 mm 2 mps 762 mmHg 69%
    23:00 +9°C° 0 mm 2 mps 762 mmHg 70%
    Show more